Location: Noyers
(47.2770°N, 1.4032°E)
Time: 23:21:45
(UTC+00:00)

ALOS 2 - Pass Details

Date: 15 May 2026
Orbit: 630 x 632 km, 97.9° (Epoch: 6 June)

Event Time Altitude Azimuth Distance (km) Brightness Sun altitude
Exits shadow 22:53:47 47° 99° (E) 843 3.0 -22.4°
Maximum altitude 22:54:22 51° 71° (ENE) 802 3.1 -22.5°
Drops below altitude 10° 22:58:38 10° 356° (N) 2,025 6.3 -22.6°
Sets 23:00:53 0° 352° (N) 2,937 7.5 -22.7°
